User: anonymous   Login
Location: Brabourne
(51.1333°N, 1.0000°E)
Time: 16:52:51
(UTC+00:00)
Language:

SL-16 R/B - Orbit

View from above orbital plane
View from above orbital plane
View from above satellite
View from above satellite

Ground track
Ground track

The orbit data is extracted from the following two-line orbital elements,

1 28353U 04021B   21269.10839456 -.00000024  00000-0  12567-4 0  9996
2 28353  71.0011  42.7030 0006228 327.1025  32.9708 14.14252484892987
Epoch (UTC): 26 September 2021 02:36:05
Eccentricity: 0.0006228
inclination: 71.0011°
perigee height: 840 km
apogee height: 849 km
right ascension of ascending node: 42.7030°
argument of perigee: 327.1025°
revolutions per day: 14.14252484
mean anomaly at epoch: 32.9708°
orbit number at epoch: 89298

The dashed part of the orbit path shows where the satellite is in the earth's shadow,  

DLR